OpenBCM V2.0.2 (Linux)

Packet Radio Mailbox

IZ3LSV

[San Dona' di P. JN]

 Login: GUEST





  
CX2SA  > KEP      26.11.08 02:25l 77 Lines 3137 Bytes #999 (0) @ WW
BID : ARLK091
Read: GUEST
Subj: ARLK091 Keplerian data
Path: IZ3LSV<IR1UAW<IK2QCA<I4UKI<IK6ZDE<VE2GPQ<CX2SA
Sent: 081125/2344Z @:CX2SA.LAV.URY.SA #:52332 [Minas] FBB7.00e $:ARLK091
From: CX2SA@CX2SA.LAV.URY.SA
To  : KEP@ARL


ZCZC SK91
QST de W1AW  
Keplerian Bulletin 91  ARLK091
From ARRL Headquarters
Newington, CT  November 25, 2008
To all radio amateurs 

SB KEP ARL ARLK091
ARLK091 Keplerian data

Special thanks to AMSAT-NA (AMSAT.ORG) for the following Keplerian
data.

Decode 2-line elsets with the following key:
1 AAAAAU 00  0  0 BBBBB.BBBBBBBB  .CCCCCCCC  00000-0  00000-0 0  DDDZ
2 AAAAA EEE.EEEE FFF.FFFF GGGGGGG HHH.HHHH III.IIII JJ.JJJJJJJJKKKKKZ
KEY: A-CATALOGNUM B-EPOCHTIME C-DECAY D-ELSETNUM E-INCLINATION F-RAAN
G-ECCENTRICITY H-ARGPERIGEE I-MNANOM J-MNMOTION K-ORBITNUM Z-CHECKSUM

AO-07
1 07530U 74089B   08329.62473804 -.00000027  00000-0  10000-3 0  3357
2 07530 101.4500 355.6553 0011804 309.2452 050.7567 12.53574663557086
UO-11
1 14781U 84021B   08329.18372296 -.00000211  00000-0 -20888-4 0  8216
2 14781 098.1373 005.4551 0008063 280.2269 079.8011 14.79677206327513
AO-16
1 20439U 90005D   08329.94012901  .00000011  00000-0  19589-4 0  4713
2 20439 098.2523 301.9589 0011894 060.1536 300.0834 14.31808980983929
AO-27
1 22825U 93061C   08329.51697583  .00000018  00000-0  23480-4 0  1143
2 22825 098.4083 283.7077 0008972 143.2558 216.9246 14.29252456790670
IO-26
1 22826U 93061D   08329.54307703  .00000021  00000-0  24486-4 0  8293
2 22826 098.4016 284.5715 0009450 139.4094 220.7787 14.29502651790778
FO-29
1 24278U 96046B   08330.56042327 -.00000004  00000-0  30402-4 0  9102
2 24278 098.5776 225.6471 0350906 157.6741 204.0109 13.52939918606219
GO-32
1 25397U 98043D   08329.62121249  .00000097  00000-0  61064-4 0  7556
2 25397 098.3480 356.7231 0001991 113.1001 247.0403 14.23151724539034
ISS
1 25544U 98067A   08330.42865938  .00034581  00000-0  26587-3 0  7270
2 25544 051.6423 269.8843 0007040 028.2099 073.6491 15.71658884573901
NO-44
1 26931U 01043C   08329.92259240 -.00000225  00000-0 -55375-4 0   344
2 26931 067.0529 230.5758 0006615 253.8875 106.1482 14.29538922373389
SO-50
1 27607U 02058C   08329.27280826  .00000091  00000-0  35976-4 0  7525
2 27607 064.5594 287.4455 0084175 248.1621 111.0452 14.71398009318526
CO-55
1 27844U 03031E   08329.45989715  .00000049  00000-0  43300-4 0  4488
2 27844 098.7166 335.5106 0010308 019.5046 340.6525 14.20608372280192
AO-51
1 28375U 04025K   08329.49055431  .00000017  00000-0  17852-4 0  2515
2 28375 098.0606 344.9686 0085107 026.8170 333.7386 14.40625507231486
VO-52
1 28650U 05017B   08330.01779303  .00000314  00000-0  46458-4 0   886
2 28650 097.7709 032.0482 0026865 338.5727 021.4364 14.81525525192418
CO-58
1 28895U 05043F   08329.24905549  .00000007  00000-0  11148-4 0  1778
2 28895 098.0804 219.3099 0016731 268.9028 091.0239 14.59717448163834
HO-59
1 29484U 06041F   08170.27591928  .21901596  31637-5  19690-3 0  4662
2 29484 098.2496 292.5583 0013872 275.6258 084.5236 16.51113477 98738
DO-64
1 32789U 08021G   08329.86778881  .00000272  00000-0  41543-4 0  2204
2 32789 097.9750 029.2173 0015171 339.7854 020.2747 14.81539324 31192

Keplerian bulletins are transmitted twice weekly from W1AW.  The
next scheduled transmission of these data will be Tuesday, December 
2, 2008, at 2330z on Baudot and AMTOR.
NNNN


Read previous mail | Read next mail


 04.05.2026 19:43:25lGo back Go up